Location: Unspecified
(0.0000°N, 0.0000°E)
Time: 13:08:16
(UTC+00:00)

Hubble Space Telescope - Pass Details

Date: 13 November 2017
Orbit: 537 x 541 km, 28.5° (Epoch: 22 November)

Event Time Altitude Azimuth Distance (km) Brightness Sun altitude
Exits shadow 03:52:22 20° 41° (NE) 1,263 2.8 -26.5°
Drops below altitude 10° 03:53:46 10° 47° (NE) 1,776 3.7 -26.2°
Sets 03:56:03 0° 52° (NE) 2,666 4.7 -25.6°
